This demonstration page uses our WeatherBlox Daily Observations layout. Learn more.

Left ArrowRight Arrow

Hourly Observations for June 10, 2019

Temp ( °F °C ) Dew Point ( °F °C ) Humidity (%) Winds ( mph kmh ) Pressure ( in mb ) Visibility ( mi km ) Precip ( " mm )
12:56 am 00:56 Clear 53 11.7 46 7.8 77 77 WNW 6 9 30.39 1029 10 16 0.00 0.00
1:56 am 01:56 Clear 52 11.1 45 7.2 77 77 NW 7 11 30.39 1029 10 16 0.00 0.00
2:56 am 02:56 Clear 51 10.6 45 7.2 80 80 NW 7 11 30.39 1029 10 16 0.00 0.00
3:56 am 03:56 Clear 49 9.4 44 6.7 83 83 NW 7 11 30.40 1029 10 16 0.00 0.00
4:56 am 04:56 Clear 48 8.9 43 6.1 83 83 WNW 8 13 30.41 1030 10 16 0.00 0.00
5:56 am 05:56 Clear 48 8.9 42 5.6 80 80 NW 6 9 30.42 1030 10 16 0.00 0.00
6:56 am 06:56 Sunny 49 9.4 42 5.6 77 77 WNW 5 7 30.44 1031 7 11 0.00 0.00
7:56 am 07:56 Sunny 57 13.9 44 6.7 62 62 W 7 11 30.43 1031 10 16 0.00 0.00
8:56 am 08:56 Sunny 63 17.2 43 6.1 48 48 W 10 17 30.43 1031 10 16 0.00 0.00
9:56 am 09:56 Sunny 65 18.3 45 7.2 49 49 WSW 10 17 30.43 1030 10 16 0.00 0.00
10:56 am 10:56 Sunny 69 20.6 43 6.1 39 39 WSW 15 24 30.41 1030 10 16 0.00 0.00
11:56 am 11:56 Sunny 71 21.7 40 4.4 32 32 W 12 19 30.40 1029 10 16 0.00 0.00
12:56 pm 12:56 Sunny 72 22.2 36 2.2 27 27 W 9 15 30.37 1029 10 16 0.00 0.00
1:56 pm 13:56 Sunny 73 22.8 37 2.8 27 27 W 12 19 30.34 1027 10 16 0.08 2.03
2:56 pm 14:56 Sunny 74 23.3 37 2.8 26 26 WSW 13 20 30.31 1026 10 16 0.00 0.00
3:56 pm 15:56 Sunny 75 23.9 37 2.8 25 25 VRB 7 11 30.29 1026 10 16 0.00 0.00
4:56 pm 16:56 Sunny 75 23.9 39 3.9 27 27 VRB 3 6 30.26 1025 10 16 0.00 0.00
5:56 pm 17:56 Sunny 75 23.9 38 3.3 26 26 S 6 9 30.23 1024 10 16 0.00 0.00
6:56 pm 18:56 Sunny 75 23.9 39 3.9 27 27 S 9 15 30.22 1023 10 16 0.00 0.00
7:56 pm 19:56 Sunny 72 22.2 42 5.6 34 34 SSE 8 13 30.20 1023 10 16 0.00 0.00
8:56 pm 20:56 Sunny 67 19.4 43 6.1 42 42 SSE 10 17 30.18 1022 10 16 0.00 0.00
9:56 pm 21:56 Clear 65 18.3 43 6.1 45 45 S 14 22 30.17 1022 10 16 0.00 0.00
10:56 pm 22:56 Clear 64 17.8 44 6.7 48 48 S 16 26 30.17 1022 10 16 0.00 0.00
11:56 pm 23:56 Clear 64 17.8 44 6.7 48 48 S 18 30 30.15 1021 10 16 0.00 0.00

Powered by AerisWeather